Starlink 34267

operational
NORAD ID: 65080 Int'l Des: 2025-167 Owner: SPXS Country: US Constellation: starlink
LEOCIRCULAR

Starlink 34267について

説明を読み込み中...

リアルタイム位置

3D地球を読み込み中...

次回通過

高度履歴

Altitude vs Time

uPlot chart will show altitude changes over time

軌道要素

1 65080U 25167C 25340.62758569 .00056326 00000-0 19002-2 0 9998
2 65080 53.1605 96.7016 0001495 81.0308 279.0862 15.30187682 20488
Epoch: Dec 6, 2025 • Age: 17 hours

現在のステータス

高度 494.5 km
速度 7.62 km/s
衛星直下点 -53.09°S, 175.46°E
打ち上げ日 Aug 4, 2025
運用期間 0.3 years
タイプ internet

技術仕様

分類 Payload
質量 575.00 kg
乾燥質量 530.00 kg
総質量 575.00 kg
長さ 0.30 m
直径 4.10 m
スパン 29.00 m
形状 Box + pan
製造者 SPXS
バスタイプ Starlink V2MO
フェーズステータス In Orbit
所有者/国 SPXS/US

大規模コンステレーション

Loading constellations...